Location: Bonneuil
(46.1010°N, 2.9693°E)
Time: 02:47:48
(UTC+00:00)

STARLINK-1241 - Pass Details

Date: 09 April 2020
Orbit: 549 x 551 km, 53.0° (Epoch: 29 May)

Event Time Altitude Azimuth Distance (km) Brightness Sun altitude
Rises 20:07:59 0° 300° (WNW) 2,726 9.0 -16.9°
Reaches altitude 10° 20:10:14 10° 303° (WNW) 1,830 7.6 -17.2°
Maximum altitude 20:14:23 66° 27° (NNE) 605 3.8 -17.8°
Enters shadow 20:15:47 39° 95° (E) 842 4.1 -18.0°
